Voltar ao catálogo

STARLINK-36868

AtivoComunicaçõesSSO
NORAD 68120·PAYLOAD·🇺🇸 United States

Lançado Mar 8, 2026 de Vandenberg Space Force Base

Loading…

Próximas Passagens (próximas 24 horas)

TLE

AtualizadoSource: CelesTrak SupGP

Época: Sep 15, 2026, 03:25 UTC

1 68120C 26044V   26258.14284722  .00013764  00000+0  42736-3 0  2589
2 68120  97.2855 217.2106 0002217  94.4591 116.5657 15.33422950    14

Acompanhe STARLINK-36868 em tempo real com AllMySat

Download on the App Store